Tracking 30415 objects as of 16-May-2025
HD Live streaming from Space Station
objects crossing your sky now

ATLAS 5 CENTAUR DEB

Track ATLAS 5 CENTAUR DEB now!


NORAD ID: 44896
Int'l Code: 2018-079BP
Perigee: 7,906.7 km
Apogee: 32,437.7 km
Inclination: 13.2 °
Period: 717.3 minutes
Semi major axis: 26543 km
RCS: Unknown
Launch date: October 17, 2018
Source: United States (US)
Launch site: AIR FORCE EASTERN TEST RANGE (AFETR)

Note: This is SATELLITE DEBRIS
Your satellite tracking list
Your tracking list is empty




NASA's NSSDC Master Catalog

Two Line Element Set (TLE):
1 44896U 18079BK  25135.23659321 -.00000102  00000-0  00000-0 0  9997
2 44896  13.2461  25.6056 4620964 340.2110   6.6692  2.00758388 39716
Source of the keplerian elements: AFSPC